Regional Weather Roundup
Issued by NWS

Home | Current Version | Previous Version | Text Only | Print | Product List | Glossary Off
Versions: 1 2 3 4 5 6 7 8 9 10 11 12 13 14 15 16 17 18 19 20 21 22 23 24 25 26 27 28 29 30 31 32 33 34 35 36 37 38 39 40 41 42 43 44 45 46 47 48 49 50

000
ASUS43 KMKX 031921
RWRWI

WISCONSIN REGIONAL WEATHER ROUNDUP
NATIONAL WEATHER SERVICE MILWAUKEE/SULLIVAN WI
200 PM CDT FRI JUL 03 2015

NOTE: "FAIR" INDICATES FEW OR NO CLOUDS BELOW 12,000 FEET WITH NO
SIGNIFICANT WEATHER AND/OR OBSTRUCTIONS TO VISIBILITY.

WIZ001-002-006>008-014>016-023>028-032000-
NORTHWEST WISCONSIN

CITY           SKY/WX    TMP DP  RH WIND       PRES   REMARKS
SUPERIOR ARPT  MOSUNNY   79  66  65 NW9       29.86F HX  81
ASHLAND        SUNNY     77  64  64 W8        29.87S
HAYWARD        SUNNY     75  58  55 W9G17     29.91F
SIREN          MOSUNNY   77  59  54 SW8       29.92S
CUMBERLAND     CLOUDY    73  54  49 W8        29.94F
RICE LAKE      CLOUDY    75  55  50 SW8       29.94F
CHETEK         MOSUNNY   75  58  54 SW5       29.94F
LADYSMITH      PTSUNNY   75  55  50 SW8       29.95F
EAU CLAIRE     SUNNY     77  56  48 W8        29.93F
MENOMONIE      SUNNY     76  55  47 W9        29.94F
NEW RICHMOND   SUNNY     76  55  48 W10       29.95F
OSCEOLA        MOSUNNY   77  58  52 SW12      29.96F
$$

WIZ003>005-009-010-017-018-032000-
NORTH CENTRAL WISCONSIN

CITY           SKY/WX    TMP DP  RH WIND       PRES   REMARKS
MANITOWISH WTR MOSUNNY   71  56  59 SW12G20   29.91F
ARBOR VITAE    PTSUNNY   72  56  57 W10G18    29.92F
WOODRUFF       PTSUNNY   72  56  57 W10G18    29.92F
RHINELANDER    PTSUNNY   73  54  51 SW13      29.94F
EAGLE RIVER    MOSUNNY   72  54  53 SW13G22   29.91F
LAND O LAKES   PTSUNNY   73  55  54 W7        29.91F
PHILLIPS       CLOUDY    71  56  58 SW8G17    29.92F
TOMAHAWK       PTSUNNY   73  55  52 W9        29.94S
MEDFORD        MOSUNNY   72  54  52 SW7       29.95F
MERRILL        PTSUNNY   74  57  55 W12       29.94F
$$

WIZ029-030-035-036-043>047-032000-
CENTRAL WISCONSIN

CITY           SKY/WX    TMP DP  RH WIND       PRES   REMARKS
WAUSAU         PTSUNNY   75  54  47 SW12      29.93F
MOSINEE        MOSUNNY   73  59  60 SW9       29.97F
MARSHFIELD     MOSUNNY   75  56  51 W8        29.96F
STEVENS POINT  PTSUNNY   72  54  53 W6        29.96F
WAUPACA        MOSUNNY   76  51  40 SW7       29.95F
WAUTOMA        MOSUNNY   76  52  43 CALM      29.96F
WISC RAPIDS    MOSUNNY   75  53  46 SW9       29.97F
CAMP DOUGLAS   MOSUNNY   75  58  55 W8        29.96F
$$

WIZ011>013-019>022-031-037>040-048>050-032000-
NORTHEAST WISCONSIN

CITY           SKY/WX    TMP DP  RH WIND       PRES   REMARKS
ANTIGO         PTSUNNY   72  58  62 W14       29.95S
SHAWANO        MOSUNNY   77  52  41 W8        29.94S
OCONTO         SUNNY     74  55  51 SW9       29.92F
STURGEON BAY   SUNNY     72  55  56 W13       29.95F
GREEN BAY      SUNNY     75  55  49 SW8       29.94F
MANITOWOC      SUNNY     73  56  54 MISG      29.96F
APPLETON       SUNNY     72  52  49 SW7       29.96F
CLINTONVILLE   SUNNY     75  50  41 S7        29.94F
OSHKOSH        SUNNY     74  53  48 W8        29.96F
$$

WIZ032>034-041-042-053>061-032000-
SOUTHWEST WISCONSIN

CITY           SKY/WX    TMP DP  RH WIND       PRES   REMARKS
LA CROSSE      MOSUNNY   76  57  51 CALM      29.96S
SPARTA         MOSUNNY   76  54  44 SW5       29.97S
VIROQUA        MOSUNNY   73  53  49 CALM      29.98F
BOSCOBEL       SUNNY     76  55  48 VRB5      29.97F
PRAIRIE DU CHI SUNNY     74  48  40 CALM      29.97F
PLATTEVILLE    SUNNY     73  50  44 S5        29.98F
$$

WIZ056-057-062-063-064-067-068-032000-
SOUTH CENTRAL WISCONSIN

CITY           SKY/WX    TMP DP  RH WIND       PRES   REMARKS
REEDSBURG      SUNNY     73  55  53 S5        29.97S
BARABOO/DELLS  SUNNY     74  53  47 SW7       29.97S
LONE ROCK      SUNNY     74  52  46 VRB5      29.98S
MINERAL POINT  SUNNY     73  45  35 CALM      29.99F
MADISON        MOSUNNY   74  53  48 SW5       29.97S
MIDDLETON      SUNNY     75  48  38 W5        29.98F
WATERTOWN      SUNNY     74  55  51 W6        29.97S
MONROE         MOSUNNY   72  55  56 CALM      29.98S
JANESVILLE     MOSUNNY   75  54  46 NW3       29.97F
$$

WIZ051-052-058>065-066-070>072-032000-
SOUTHEAST WISCONSIN

CITY           SKY/WX    TMP DP  RH WIND       PRES   REMARKS
MILWAUKEE      PTSUNNY   72  49  44 E10       29.97F
WAUKESHA       MOSUNNY   72  52  49 SE7       29.98F
MILWAUKEE/TIMM MOSUNNY   73  45  35 SE7       29.98S
RACINE         SUNNY     71  54  54 E7        29.99F
BURLINGTON     MOSUNNY   73  52  46 CALM      29.97F
KENOSHA        SUNNY     74  54  49 SE7       29.97F
FOND DU LAC    SUNNY     75  54  47 CALM      29.96F
SHEBOYGAN      SUNNY     74  54  49 S10       29.96F
WEST BEND      PTSUNNY   73  52  46 CALM      29.96F
JUNEAU         SUNNY     72  54  52 SW5       29.98S
$$

LSZ147-162-032000-
LAKE SUPERIOR

STATION/POSITION TIME  TEMP    WIND        PRES    WAVE
                       AIR SEA DIR/SP/G            HT/PER
                 (UTC) (F)     (DEG/KT/KT) (MB)    (FT/S)
W MID LAKE BUOY  1850   47 39  220/ 12/ 12 1010.3F   1/ 4
DEVILS ISLAND    1900   67     230/  9/ 12 1010.6F
SAXON HARBOR     1840   75     210/  6/ 11 1011.2S
$$

LMZ867-665-643>646-032000-
LAKE MICHIGAN

STATION/POSITION TIME  TEMP    WIND        PRES    WAVE
                       AIR SEA DIR/SP/G            HT/PER
                 (UTC) (F)     (DEG/KT/KT) (MB)    (FT/S)
CHAMBERS ISLAND  1800   69     180/  4/ 11 1013.5F
S GREEN BAY BUOY 1730   68 68  210/ 12/ 14 1015.6
N MID LAKE BUOY  1850   51 44  190/ 14/ 14 1013.2F   1/ 3
NORTHPORT PIER   1800   71     190/  4/ 11 1013.2F
SISTER BAY       1814   71     240/ 12/ 13   N/A
ALGOMA LAKESHORE 1741          210/ 12/ 14   N/A
KEWAUNEE LAKESHO 1800   61     170/  8/  9 1014.0F
SHEBOYGAN LAKESH 1900   60     170/ 13/ 14 1014.9F
PORT WASHINGTON  1800   63     160/  6/  8 1015.9
ATWATER BUOY     1900   61 61  120/  6/  8 1016.4F
MILWAUKEE LAKESH 1900   61     130/  5/  6   N/A
KENOSHA   LAKESH 1900   65     120/  5/  6 1014.9F
$$

TC  - TEMPERATURE IN CELSIUS
VSB - VISIBILITY IN STATUTE MILES
WCI - WIND CHILL INDEX
HX  - HEAT INDEX



USA.gov is the U.S. government's official web portal to all federal, state and local government web resources and services.